GPMAT EGFF-EGNV

Flight info

Callsign GPMAT
Flight time N/A
Altitude 19000
Route BCN P69 DIZIM N864 AVTIC N38 NOKIN P17 POL P18 GASKO
Aircraft B350/L-SBGRW/S

Departure

Time 2026-04-27 20:53
Airport Cardiff International Airport (EGFF)

Arrival

Time N/A
Airport Teesside International Airport (EGNV)
Time Latitude Longitude Altitude Speed Heading
2026-04-27 20:21 51.39681 -3.33617 215 ft 0 kts 263°
2026-04-27 20:44 51.39677 -3.33630 215 ft 3 kts 227°
2026-04-27 20:44 51.39644 -3.33658 215 ft 7 kts 217°
2026-04-27 20:44 51.39663 -3.33756 216 ft 11 kts 296°
2026-04-27 20:45 51.39708 -3.33895 216 ft 15 kts 297°
2026-04-27 20:45 51.39758 -3.34057 217 ft 16 kts 295°
2026-04-27 20:45 51.39807 -3.34207 218 ft 15 kts 294°
2026-04-27 20:45 51.39855 -3.34360 218 ft 15 kts 294°
2026-04-27 20:46 51.39906 -3.34523 219 ft 19 kts 297°
2026-04-27 20:46 51.39968 -3.34719 218 ft 11 kts 296°
2026-04-27 20:46 51.40004 -3.34825 218 ft 11 kts 296°
2026-04-27 20:46 51.40044 -3.34960 218 ft 17 kts 297°
2026-04-27 20:47 51.40109 -3.35166 216 ft 21 kts 298°
2026-04-27 20:47 51.40157 -3.35351 213 ft 15 kts 267°
2026-04-27 20:47 51.40132 -3.35455 212 ft 0 kts 231°
2026-04-27 20:51 51.40127 -3.35465 212 ft 3 kts 225°
2026-04-27 20:51 51.40085 -3.35510 212 ft 5 kts 205°
2026-04-27 20:52 51.40043 -3.35534 212 ft 5 kts 165°
2026-04-27 20:52 51.39986 -3.35364 214 ft 50 kts 110°
2026-04-27 20:52 51.39717 -3.34510 220 ft 116 kts 116°
2026-04-27 20:52 51.39311 -3.33269 568 ft 125 kts 110°
2026-04-27 20:53 51.38992 -3.32059 1144 ft 126 kts 106°
2026-04-27 20:53 51.38599 -3.30735 1611 ft 135 kts 107°
2026-04-27 20:53 51.38215 -3.29396 2153 ft 139 kts 107°
2026-04-27 20:53 51.37779 -3.27983 2570 ft 150 kts 110°
2026-04-27 20:54 51.36928 -3.25007 3635 ft 147 kts 99°
2026-04-27 20:54 51.36433 -3.23487 4037 ft 160 kts 115°
2026-04-27 20:54 51.35910 -3.21937 4504 ft 161 kts 109°
2026-04-27 20:55 51.35587 -3.20236 4952 ft 160 kts 94°
2026-04-27 20:55 51.35592 -3.18504 5440 ft 156 kts 74°
2026-04-27 20:55 51.35946 -3.16864 5866 ft 157 kts 57°
2026-04-27 20:55 51.36584 -3.15496 6334 ft 155 kts 41°
2026-04-27 20:56 51.37447 -3.14540 6754 ft 155 kts 22°
2026-04-27 20:56 51.38506 -3.14035 7112 ft 163 kts 13°
2026-04-27 20:56 51.39619 -3.13594 7463 ft 168 kts 13°
2026-04-27 20:56 51.40770 -3.13137 7839 ft 171 kts 13°
2026-04-27 20:57 51.41938 -3.12866 8219 ft 172 kts 359°
2026-04-27 20:57 51.43130 -3.13054 8673 ft 173 kts 351°
2026-04-27 20:57 51.44286 -3.13436 9161 ft 172 kts 347°
2026-04-27 20:57 51.45437 -3.13903 9672 ft 170 kts 346°
2026-04-27 20:58 51.46568 -3.14396 10123 ft 169 kts 345°
2026-04-27 20:58 51.47692 -3.14900 10551 ft 168 kts 345°
2026-04-27 20:58 51.48806 -3.15405 10953 ft 167 kts 345°
2026-04-27 20:58 51.49923 -3.15914 11346 ft 167 kts 345°
2026-04-27 20:59 51.51022 -3.16416 11758 ft 166 kts 345°
2026-04-27 20:59 51.52119 -3.16917 12122 ft 164 kts 345°
2026-04-27 20:59 51.53206 -3.17414 12539 ft 163 kts 344°
2026-04-27 20:59 51.54306 -3.17918 12971 ft 165 kts 344°
2026-04-27 21:00 51.55394 -3.18416 13417 ft 164 kts 343°
2026-04-27 21:00 51.56490 -3.18918 13901 ft 161 kts 343°
2026-04-27 21:00 51.57551 -3.19405 14334 ft 160 kts 343°
2026-04-27 21:00 51.58615 -3.19893 14729 ft 160 kts 344°
2026-04-27 21:01 51.59677 -3.20380 15125 ft 160 kts 344°
2026-04-27 21:01 51.60741 -3.20869 15504 ft 160 kts 344°
2026-04-27 21:01 51.61795 -3.21352 15886 ft 159 kts 344°
2026-04-27 21:01 51.62857 -3.21841 16297 ft 159 kts 345°
2026-04-27 21:02 51.63921 -3.22330 16711 ft 159 kts 344°
2026-04-27 21:02 51.64976 -3.22815 17121 ft 158 kts 344°
2026-04-27 21:02 51.66027 -3.23299 17536 ft 156 kts 345°
2026-04-27 21:02 51.67062 -3.23775 17917 ft 155 kts 344°
2026-04-27 21:03 51.68091 -3.24249 18303 ft 155 kts 344°
2026-04-27 21:03 51.69114 -3.24721 18686 ft 154 kts 345°
2026-04-27 21:03 51.70132 -3.25190 19056 ft 152 kts 345°
2026-04-27 21:03 51.71160 -3.25664 19261 ft 160 kts 345°
2026-04-27 21:04 51.72281 -3.26170 19293 ft 175 kts 348°
2026-04-27 21:04 51.73562 -3.26071 19314 ft 192 kts
2026-04-27 21:04 51.74924 -3.25731 19305 ft 206 kts
2026-04-27 21:04 51.76383 -3.25370 19303 ft 219 kts
2026-04-27 21:05 51.77916 -3.24992 19300 ft 229 kts
2026-04-27 21:05 51.79534 -3.24594 19297 ft 238 kts
2026-04-27 21:05 51.81200 -3.24238 19290 ft 244 kts 359°
2026-04-27 21:05 51.82904 -3.24001 19287 ft 252 kts 11°
2026-04-27 21:06 51.84628 -3.23396 19307 ft 256 kts
2026-04-27 21:06 51.86383 -3.22919 19292 ft 259 kts
2026-04-27 21:06 51.88184 -3.22464 19302 ft 262 kts
2026-04-27 21:06 51.90013 -3.22180 19282 ft 264 kts 359°
2026-04-27 21:07 51.91815 -3.21781 19311 ft 266 kts
2026-04-27 21:07 51.93655 -3.21214 19302 ft 268 kts
2026-04-27 21:07 51.95486 -3.20707 19299 ft 269 kts
2026-04-27 21:07 51.97352 -3.20628 19303 ft 267 kts 359°
2026-04-27 21:08 51.99184 -3.20092 19325 ft 270 kts 10°
2026-04-27 21:08 52.01023 -3.19453 19294 ft 271 kts
2026-04-27 21:08 52.02870 -3.18906 19303 ft 271 kts
2026-04-27 21:08 52.04742 -3.18515 19282 ft 268 kts
2026-04-27 21:09 52.06580 -3.18358 19286 ft 264 kts
2026-04-27 21:09 52.08405 -3.18211 19291 ft 261 kts
2026-04-27 21:09 52.10199 -3.18070 19289 ft 259 kts
2026-04-27 21:09 52.12011 -3.17930 19289 ft 258 kts
2026-04-27 21:10 52.13784 -3.17871 19277 ft 257 kts 354°
2026-04-27 21:10 52.15532 -3.18352 19288 ft 254 kts 359°
2026-04-27 21:10 52.17291 -3.17960 19324 ft 253 kts
2026-04-27 21:10 52.19033 -3.17610 19300 ft 254 kts
2026-04-27 21:11 52.20797 -3.17364 19285 ft 254 kts
2026-04-27 21:11 52.22539 -3.17175 19290 ft 253 kts
2026-04-27 21:11 52.24296 -3.17011 19299 ft 253 kts
2026-04-27 21:11 52.26049 -3.16862 19299 ft 253 kts
2026-04-27 21:12 52.27798 -3.16720 19289 ft 253 kts
2026-04-27 21:12 52.29573 -3.16580 19296 ft 252 kts
2026-04-27 21:12 52.31318 -3.16444 19300 ft 252 kts
2026-04-27 21:12 52.33050 -3.16309 19300 ft 252 kts
2026-04-27 21:13 52.34806 -3.16172 19300 ft 252 kts
2026-04-27 21:13 52.36558 -3.16036 19294 ft 252 kts
2026-04-27 21:13 52.38304 -3.15900 19299 ft 251 kts
2026-04-27 21:13 52.40039 -3.15766 19296 ft 251 kts
2026-04-27 21:14 52.41801 -3.15628 19288 ft 251 kts
2026-04-27 21:14 52.43529 -3.15494 19294 ft 251 kts
2026-04-27 21:14 52.45288 -3.15358 19294 ft 251 kts
2026-04-27 21:14 52.47021 -3.15223 19294 ft 251 kts
2026-04-27 21:15 52.48752 -3.15088 19301 ft 251 kts
2026-04-27 21:15 52.50502 -3.14952 19300 ft 251 kts
2026-04-27 21:15 52.52255 -3.14814 19299 ft 251 kts
2026-04-27 21:15 52.53998 -3.14678 19301 ft 251 kts
2026-04-27 21:16 52.55735 -3.14543 19289 ft 251 kts
2026-04-27 21:16 52.57470 -3.14406 19295 ft 251 kts
2026-04-27 21:16 52.59210 -3.14270 19302 ft 251 kts
2026-04-27 21:16 52.60948 -3.14133 19316 ft 250 kts
2026-04-27 21:17 52.62688 -3.13979 19303 ft 251 kts
2026-04-27 21:17 52.64421 -3.13764 19317 ft 250 kts
2026-04-27 21:17 52.66159 -3.13675 19318 ft 249 kts
2026-04-27 21:17 52.67891 -3.13563 19315 ft 250 kts
2026-04-27 21:18 52.69630 -3.13438 19312 ft 250 kts
2026-04-27 21:18 52.71345 -3.13298 19312 ft 250 kts
2026-04-27 21:18 52.73024 -3.12466 19343 ft 251 kts 22°
2026-04-27 21:18 52.74583 -3.11191 19316 ft 253 kts 22°
2026-04-27 21:19 52.76165 -3.09920 19326 ft 252 kts 22°
2026-04-27 21:19 52.77741 -3.08672 19337 ft 252 kts 22°
2026-04-27 21:19 52.79310 -3.07437 19326 ft 252 kts 22°
2026-04-27 21:20 52.82472 -3.04958 19320 ft 252 kts 22°
2026-04-27 21:20 52.84061 -3.03714 19331 ft 252 kts 22°
2026-04-27 21:20 52.85643 -3.02474 19335 ft 252 kts 22°
2026-04-27 21:20 52.87232 -3.01228 19321 ft 253 kts 22°
2026-04-27 21:21 52.88821 -2.99982 19315 ft 252 kts 22°
2026-04-27 21:21 52.90421 -2.98823 19318 ft 251 kts 18°
2026-04-27 21:21 52.92048 -2.97841 19333 ft 250 kts 18°
2026-04-27 21:21 52.93678 -2.96853 19332 ft 250 kts 18°
2026-04-27 21:22 52.95303 -2.95864 19330 ft 250 kts 18°
2026-04-27 21:22 52.96924 -2.94875 19327 ft 250 kts 18°
2026-04-27 21:22 52.98565 -2.93872 19330 ft 250 kts 18°
2026-04-27 21:22 53.00186 -2.92880 19332 ft 250 kts 18°
2026-04-27 21:23 53.01828 -2.91875 19337 ft 250 kts 18°
2026-04-27 21:23 53.03450 -2.90880 19330 ft 251 kts 18°
2026-04-27 21:23 53.05076 -2.89883 19332 ft 251 kts 18°
2026-04-27 21:23 53.06724 -2.88870 19330 ft 250 kts 18°
2026-04-27 21:24 53.08306 -2.87659 19320 ft 253 kts 29°
2026-04-27 21:24 53.09737 -2.85990 19333 ft 254 kts 31°
2026-04-27 21:24 53.11188 -2.84289 19349 ft 254 kts 31°
2026-04-27 21:24 53.12628 -2.82617 19344 ft 254 kts 31°
2026-04-27 21:25 53.14087 -2.80930 19340 ft 255 kts 31°
2026-04-27 21:25 53.15535 -2.79260 19336 ft 256 kts 31°
2026-04-27 21:25 53.16992 -2.77581 19336 ft 256 kts 31°
2026-04-27 21:25 53.18459 -2.75889 19350 ft 256 kts 31°
2026-04-27 21:26 53.19918 -2.74205 19345 ft 256 kts 31°
2026-04-27 21:26 53.21381 -2.72516 19340 ft 257 kts 31°
2026-04-27 21:26 53.22847 -2.70821 19340 ft 257 kts 31°
2026-04-27 21:26 53.24306 -2.69134 19342 ft 256 kts 31°
2026-04-27 21:27 53.25756 -2.67402 19341 ft 258 kts 34°
2026-04-27 21:27 53.27212 -2.65664 19340 ft 256 kts 29°
2026-04-27 21:27 53.28695 -2.64018 19343 ft 257 kts 30°
2026-04-27 21:27 53.30170 -2.62349 19344 ft 257 kts 30°
2026-04-27 21:28 53.31635 -2.60676 19343 ft 257 kts 31°
2026-04-27 21:28 53.33107 -2.58984 19339 ft 257 kts 31°
2026-04-27 21:28 53.34569 -2.57299 19344 ft 256 kts 31°
2026-04-27 21:28 53.36043 -2.55598 19344 ft 256 kts 31°
2026-04-27 21:29 53.37503 -2.53909 19341 ft 256 kts 31°
2026-04-27 21:29 53.38979 -2.52200 19342 ft 256 kts 31°
2026-04-27 21:29 53.40438 -2.50509 19341 ft 257 kts 31°
2026-04-27 21:29 53.41902 -2.48812 19339 ft 257 kts 31°
2026-04-27 21:30 53.43382 -2.47095 19342 ft 257 kts 31°
2026-04-27 21:30 53.44839 -2.45401 19335 ft 258 kts 31°
2026-04-27 21:30 53.46328 -2.43670 19352 ft 258 kts 31°
2026-04-27 21:30 53.47820 -2.42030 19337 ft 257 kts 28°
2026-04-27 21:31 53.49294 -2.40290 19366 ft 259 kts 32°
2026-04-27 21:31 53.50734 -2.38534 19334 ft 259 kts 32°
2026-04-27 21:31 53.52203 -2.36769 19342 ft 259 kts 32°
2026-04-27 21:31 53.53669 -2.35020 19340 ft 259 kts 32°
2026-04-27 21:32 53.55128 -2.33286 19335 ft 259 kts 32°
2026-04-27 21:32 53.56598 -2.31541 19339 ft 259 kts 32°
2026-04-27 21:32 53.58070 -2.29792 19339 ft 259 kts 32°
2026-04-27 21:32 53.59546 -2.28039 19335 ft 259 kts 32°
2026-04-27 21:33 53.61013 -2.26294 19333 ft 258 kts 32°
2026-04-27 21:33 53.62481 -2.24547 19334 ft 258 kts 32°
2026-04-27 21:33 53.63932 -2.22820 19329 ft 259 kts 32°
2026-04-27 21:33 53.65415 -2.21053 19332 ft 259 kts 33°
2026-04-27 21:34 53.66882 -2.19303 19337 ft 259 kts 32°
2026-04-27 21:34 53.68335 -2.17568 19329 ft 259 kts 33°
2026-04-27 21:34 53.69818 -2.15796 19318 ft 259 kts 33°
2026-04-27 21:34 53.71272 -2.14057 19322 ft 259 kts 32°
2026-04-27 21:35 53.72746 -2.12292 19333 ft 259 kts 32°
2026-04-27 21:35 53.74223 -2.10580 19147 ft 256 kts 28°
2026-04-27 21:35 53.75876 -2.09717 18661 ft 247 kts 10°
2026-04-27 21:35 53.77529 -2.09287 18287 ft 237 kts 11°
2026-04-27 21:36 53.79119 -2.08840 17908 ft 229 kts 11°
2026-04-27 21:36 53.80665 -2.08388 17521 ft 222 kts 12°
2026-04-27 21:36 53.82165 -2.07940 17139 ft 216 kts 11°
2026-04-27 21:36 53.83621 -2.07501 16767 ft 211 kts 12°
2026-04-27 21:37 53.85051 -2.07066 16389 ft 207 kts 12°
2026-04-27 21:37 53.86460 -2.06636 16011 ft 203 kts 12°
2026-04-27 21:37 53.87822 -2.06220 15645 ft 200 kts 12°
2026-04-27 21:37 53.89180 -2.05804 15274 ft 197 kts 12°
2026-04-27 21:38 53.90519 -2.05393 14907 ft 194 kts 12°
2026-04-27 21:38 53.91821 -2.04993 14540 ft 191 kts 12°
2026-04-27 21:38 53.93131 -2.04590 14165 ft 189 kts 12°
2026-04-27 21:38 53.94405 -2.04198 13802 ft 187 kts 12°
2026-04-27 21:39 53.95691 -2.03802 13433 ft 186 kts 13°
2026-04-27 21:39 53.96950 -2.03415 13066 ft 184 kts 13°
2026-04-27 21:39 53.98187 -2.03034 12745 ft 181 kts 13°
2026-04-27 21:39 53.99406 -2.02656 12473 ft 177 kts 13°
2026-04-27 21:40 54.00632 -2.02274 12216 ft 179 kts 13°
2026-04-27 21:40 54.01857 -2.01891 11961 ft 180 kts 14°
2026-04-27 21:40 54.03073 -2.01431 11708 ft 182 kts 12°
2026-04-27 21:40 54.04326 -2.01088 11450 ft 183 kts 12°
2026-04-27 21:41 54.05592 -2.00728 11189 ft 184 kts 12°
2026-04-27 21:41 54.06844 -2.00363 10930 ft 185 kts 12°
2026-04-27 21:41 54.08120 -1.99985 10667 ft 186 kts 12°
2026-04-27 21:41 54.09391 -1.99607 10407 ft 188 kts 12°
2026-04-27 21:42 54.10696 -1.99281 10144 ft 189 kts 13°
2026-04-27 21:42 54.11982 -1.98860 9905 ft 190 kts 13°